Location: Martley
(52.2333°N, 2.3667°W)
Time: 14:07:59
(UTC+00:00)

Cosmos 1515 - Pass Details

Date: 11 December 2019
Orbit: 507 x 515 km, 82.5° (Epoch: 23 January)

Event Time Altitude Azimuth Distance (km) Brightness Sun altitude
Exits shadow 06:05:49 23° 342° (NNW) 1,140 5.1 -17.5°
Maximum altitude 06:08:07 71° 263° (W) 551 3.6 -17.1°
Drops below altitude 10° 06:11:55 10° 179° (S) 1,739 6.6 -16.6°
Sets 06:14:02 0° 177° (S) 2,622 7.6 -16.3°
